This is the latest recevied weather packets stored in our database for station/object DM8MH-13. If no packets are shown the sender has not sent any weather packets the latest 10 day(s).
| Time | Temp. | Humidity | Pressure | Rain* | Wind** | Luminosity | Snow |
|---|---|---|---|---|---|---|---|
| 1777386672 | 16.11° C | 36% | 1022.6 hPa | 0 mm | - | 562 W/m² | - |
| 1777386073 | 15.56° C | 36% | 1022.8 hPa | 0 mm | - | 583 W/m² | - |
| 1777385472 | 15.56° C | 37% | 1022.8 hPa | 0 mm | - | 604 W/m² | - |
| 1777384872 | 16.11° C | 38% | 1023.1 hPa | 0 mm | - | 621 W/m² | - |
| 1777384272 | 16.11° C | 39% | 1023.1 hPa | 0 mm | - | 638 W/m² | - |
| 1777383671 | 16.11° C | 39% | 1023.1 hPa | 0 mm | - | 643 W/m² | - |
| 1777383072 | 16.11° C | 40% | 1023.1 hPa | 0 mm | - | 676 W/m² | - |
| 1777382473 | 16.11° C | 40% | 1023.1 hPa | 0 mm | - | 689 W/m² | - |
| 1777381872 | 15.56° C | 41% | 1023 hPa | 0 mm | - | 725 W/m² | - |
| 1777381272 | 15.56° C | 43% | 1022.9 hPa | 0 mm | - | 692 W/m² | - |
| 1777380671 | 16.11° C | 42% | 1023.2 hPa | 0 mm | - | 673 W/m² | - |
| 1777380072 | 15.56° C | 42% | 1023 hPa | 0 mm | - | 702 W/m² | - |
| 1777379471 | 15.56° C | 43% | 1023 hPa | 0 mm | - | 705 W/m² | - |
| 1777378872 | 15.56° C | 44% | 1023.1 hPa | 0 mm | - | 734 W/m² | - |
| 1777378272 | 15.56° C | 45% | 1023.1 hPa | 0 mm | - | 789 W/m² | - |
| 1777377671 | 15° C | 46% | 1023.1 hPa | 0 mm | - | 747 W/m² | - |
| 1777377071 | 15.56° C | 47% | 1023.2 hPa | 0 mm | - | 799 W/m² | - |
| 1777376471 | 15° C | 48% | 1023.2 hPa | 0 mm | - | 774 W/m² | - |
| 1777375871 | 14.44° C | 50% | 1023.1 hPa | 0 mm | - | 746 W/m² | - |
| 1777375271 | 15° C | 50% | 1023.2 hPa | 0 mm | - | 613 W/m² | - |
| 1777374671 | 14.44° C | 51% | 1023.3 hPa | 0 mm | - | 624 W/m² | - |
| 1777374071 | 14.44° C | 52% | 1023.3 hPa | 0 mm | - | 640 W/m² | - |
| 1777373472 | 14.44° C | 51% | 1023.4 hPa | 0 mm | - | 719 W/m² | - |
| 1777372871 | 14.44° C | 51% | 1023.5 hPa | 0 mm | - | 723 W/m² | - |
| 1777372271 | 14.44° C | 52% | 1023.5 hPa | 0 mm | - | 705 W/m² | - |
* Rain latest hour (hover to see other rain measurements)
** Current wind speed in m/s (hover to see current wind gust speed)